TimeEST,TemperatureF,Dew PointF,Humidity,Sea Level PressureIn,VisibilityMPH,Wind Direction,Wind SpeedMPH,Gust SpeedMPH,PrecipitationIn,Events,Conditions,WindDirDegrees,DateUTC
12:53 AM,55.0,52.0,89,30.06,10.0,Calm,Calm,-,N/A,,Partly Cloudy,0,2013-02-06 05:53:00
1:53 AM,53.6,51.8,94,30.06,10.0,Calm,Calm,-,N/A,,Clear,0,2013-02-06 06:53:00
2:53 AM,54.0,51.1,90,30.03,10.0,Calm,Calm,-,N/A,,Clear,0,2013-02-06 07:53:00
3:53 AM,53.1,50.0,89,30.04,7.0,Calm,Calm,-,N/A,,Clear,0,2013-02-06 08:53:00
4:53 AM,53.1,51.1,93,30.05,9.0,Calm,Calm,-,N/A,,Clear,0,2013-02-06 09:53:00
5:53 AM,53.1,51.1,93,30.07,9.0,Calm,Calm,-,N/A,,Clear,0,2013-02-06 10:53:00
6:21 AM,53.6,51.8,94,30.08,1.5,Calm,Calm,-,N/A,,Mostly Cloudy,0,2013-02-06 11:21:00
6:33 AM,55.4,53.6,94,30.08,3.0,Calm,Calm,-,N/A,,Overcast,0,2013-02-06 11:33:00
6:53 AM,57.0,55.0,93,30.09,9.0,Calm,Calm,-,N/A,,Overcast,0,2013-02-06 11:53:00
7:53 AM,57.9,55.9,93,30.10,5.0,Calm,Calm,-,N/A,,Clear,0,2013-02-06 12:53:00
8:53 AM,70.0,62.1,76,30.11,10.0,South,3.5,-,N/A,,Mostly Cloudy,190,2013-02-06 13:53:00
9:53 AM,73.9,62.1,66,30.12,10.0,South,4.6,-,N/A,,Mostly Cloudy,190,2013-02-06 14:53:00
10:53 AM,75.0,60.1,60,30.13,10.0,SE,5.8,-,N/A,,Partly Cloudy,140,2013-02-06 15:53:00
11:53 AM,78.1,62.1,58,30.11,10.0,East,10.4,-,N/A,,Scattered Clouds,100,2013-02-06 16:53:00
12:53 PM,75.0,63.0,66,30.09,10.0,ESE,13.8,-,N/A,,Clear,110,2013-02-06 17:53:00
1:53 PM,75.0,62.1,64,30.08,10.0,ESE,11.5,-,N/A,,Scattered Clouds,110,2013-02-06 18:53:00
2:53 PM,77.0,61.0,58,30.06,10.0,ESE,12.7,-,N/A,,Mostly Cloudy,120,2013-02-06 19:53:00
3:53 PM,75.9,61.0,60,30.06,10.0,ESE,13.8,-,N/A,,Scattered Clouds,120,2013-02-06 20:53:00
4:53 PM,73.9,60.1,62,30.07,10.0,ESE,11.5,-,N/A,,Mostly Cloudy,120,2013-02-06 21:53:00
5:53 PM,73.0,60.1,64,30.07,10.0,ESE,10.4,-,N/A,,Scattered Clouds,110,2013-02-06 22:53:00
6:53 PM,71.1,61.0,70,30.09,10.0,ESE,5.8,-,N/A,,Overcast,110,2013-02-06 23:53:00
7:53 PM,71.1,62.1,73,30.09,10.0,ESE,11.5,-,N/A,,Overcast,110,2013-02-07 00:53:00
8:53 PM,71.1,62.1,73,30.09,10.0,ESE,9.2,-,N/A,,Mostly Cloudy,110,2013-02-07 01:53:00
9:53 PM,71.1,62.1,73,30.10,10.0,ESE,10.4,-,N/A,,Overcast,120,2013-02-07 02:53:00
10:53 PM,70.0,61.0,73,30.11,10.0,SE,8.1,-,N/A,,Mostly Cloudy,130,2013-02-07 03:53:00
11:53 PM,71.1,61.0,70,30.09,10.0,ESE,9.2,-,N/A,,Overcast,120,2013-02-07 04:53:00